#timestamp,LO_Frequency,Hit,StdDev 
1546452015.1,286047002.6,N
1546452035.9,286047002.1,N
1546452055.7,286047002.6,N
1546452075.5,286047002.2,N
1546452095.4,286047003.6,N
1546452115.2,286047003.9,N
1546452135.1,286047004.2,N
1546452136.0,286047004.2,N
1546452155.8,286047001.3,N
1546452175.6,286047001.6,N
1546452195.5,286046999.9,N
1546452215.3,286047000.0,N
1546452235.2,286047000.6,N
1546452255.9,286046998.1,N
1546452275.7,286047001.2,N
1546452295.6,286046998.6,N
1546452315.4,286047000.6,N
1546452335.2,286047000.5,N
1546452355.1,286047000.1,N
1546452356.0,286047000.1,N
1546452375.8,286047002.5,N
1546452395.7,286047002.5,N
1546452415.5,286047001.6,N
1546452435.3,286047001.9,N
1546452455.2,286047001.6,N
1546452475.0,286047001.5,N
1546452475.9,286047001.5,N
1546452495.7,286047001.9,N
1546452515.6,286047002.8,N
1546452535.4,286046999.8,N
1546452555.3,286047001.5,N
1546452575.1,286047004.4,N
1546452595.8,286047001.6,N
1546452615.7,286047002.2,N
1546452635.5,286047002.3,N
1546452655.4,286046999.8,N
1546452675.2,286047002.1,N
1546452695.0,286047002.8,N
1546452695.9,286047002.8,N
1546452715.8,286047002.7,N
1546452735.6,286047002.6,N
1546452755.4,286047000.2,N
1546452775.3,286047000.4,N
1546452795.1,286047002.4,N
1546452815.9,286047002.8,N
1546452835.7,286047000.3,N
1546452855.5,286047001.1,N
1546452875.4,286047001.1,N
1546452895.2,286047000.3,N
1546452915.0,286047000.2,N
1546452915.9,286047000.2,N
1546452935.8,286047002.2,N
1546452955.6,286047002.2,N
1546452975.5,286047002.0,N
1546452995.3,286047000.3,N
1546453015.1,286047000.3,N
1546453035.9,286046999.9,N
1546453055.7,286047000.5,N
1546453075.5,286047001.0,N
1546453095.4,286047000.0,N
1546453115.2,286047000.6,N
1546453135.1,286047002.4,N
1546453136.0,286047002.4,N
1546453155.8,286047002.6,N
1546453175.6,286047001.3,N
1546453195.5,286047002.6,N
1546453215.3,286047003.2,Y
1546453235.2,286047004.2,P
1546453255.9,286047002.8,N
1546453275.7,286047000.1,N
1546453295.6,286047000.1,N
1546453315.4,286047000.5,N
1546453335.2,286047000.2,N
1546453355.1,286047000.6,N
1546453356.0,286047000.6,N
1546453375.8,286047000.8,N
1546453395.7,286047000.2,N
1546453415.5,286047000.1,N
1546453435.3,286047002.6,N
1546453455.2,286047000.7,N
1546453475.0,286047000.9,N
1546453475.9,286047000.9,N
1546453495.7,286046998.8,N
1546453515.6,286047001.0,N
1546453535.4,286047000.9,N
1546453555.3,286047000.9,N
1546453575.1,286047001.2,N
1546453576.0,286047001.2,N
1546453595.8,286046998.5,N
1546453615.7,286046999.1,N
1546453635.5,286046998.9,N
1546453655.3,286046999.4,N
1546453675.2,286046998.6,N
1546453695.0,286047000.2,N
1546453695.9,286047000.2,N
1546453715.8,286047000.3,N
1546453735.6,286047000.6,N
1546453755.4,286046999.7,N
1546453775.3,286047002.0,N
1546453795.1,286047000.0,N
1546453815.8,286047000.4,N
1546453835.7,286047000.4,N
1546453855.5,286046999.9,N
1546453875.4,286047000.6,N
1546453895.2,286047000.5,N
1546453915.0,286047001.9,N
1546453915.9,286047001.9,N
1546453935.8,286047001.9,N
1546453955.6,286047002.1,N
1546453975.4,286047002.4,N
1546453995.3,286047002.3,N
1546454015.1,286047001.5,N
1546454035.9,286047001.9,N
1546454055.7,286047001.5,N
1546454075.5,286047002.0,N
1546454095.4,286047002.5,N
1546454115.2,286047001.7,N
1546454135.0,286047002.0,N
1546454135.9,286047002.0,N
1546454155.8,286047002.6,N
1546454175.6,286047003.8,Y
1546454195.5,286047002.7,P
1546454215.3,286047000.3,N
1546454235.1,286047000.4,N
1546454255.9,286047000.5,N
1546454275.7,286047002.4,N
1546454295.5,286047002.3,N
1546454315.4,286047002.7,N
1546454335.2,286047002.7,N
1546454355.1,286047002.2,N
1546454356.0,286047002.2,N
1546454375.8,286046999.8,N
1546454395.6,286047000.8,N
1546454415.5,286046998.1,N
1546454435.3,286046998.7,N
1546454455.1,286046999.4,N
1546454475.9,286046999.4,N
1546454495.7,286046996.8,N
1546454515.6,286046996.5,N
1546454535.4,286046999.6,N
1546454555.2,286046998.9,N
1546454575.1,286046999.3,N
1546454576.0,286046999.3,N
1546454595.8,286046999.0,N
1546454615.7,286047001.2,N
1546454635.5,286047000.8,N
1546454655.3,286047000.3,N
1546454675.2,286047000.3,N
1546454695.9,286047000.0,N
1546454715.7,286047002.5,N
1546454735.6,286047002.0,N
1546454755.4,286047002.0,N
1546454775.3,286047002.5,N
1546454795.1,286047002.0,N
1546454815.8,286047002.1,N
1546454835.7,286047002.0,N
1546454855.5,286047001.5,N
1546454875.4,286047001.9,N
1546454895.2,286047002.0,N
1546454915.0,286047001.5,N
1546454915.9,286047001.5,N
1546454935.8,286047002.2,N
1546454955.6,286047002.4,N
1546454975.4,286047002.5,N
1546454995.3,286047004.0,N
1546455015.1,286047002.3,N
1546455035.9,286047002.5,N
1546455055.7,286047001.6,N
1546455075.5,286046999.8,N
1546455095.4,286046998.2,N
1546455115.2,286046998.9,N
1546455135.0,286046999.0,N
1546455135.9,286046999.0,N
1546455155.8,286046998.3,N
1546455175.6,286046999.1,N
1546455195.5,286046998.7,N
1546455245.3,286047000.8,E
1546455255.3,286047000.0,N
1546455275.1,286047001.0,P
1546455276.0,286047001.0,N
1546455295.8,286046998.8,N
1546455315.7,286046998.5,N
1546455335.5,286047000.6,N
1546455355.3,286047000.3,N
1546455375.2,286046998.3,N
1546455395.0,286046998.3,N
1546455395.9,286046998.3,N
1546455415.8,286046998.7,N
1546455435.6,286047000.5,N
1546455455.4,286046999.9,N
1546455475.3,286047000.5,N
1546455495.1,286047000.8,N
1546455515.8,286047001.2,N
1546455535.7,286046998.4,N
1546455555.5,286046998.8,N
1546455575.4,286046999.0,N
1546455595.2,286046999.0,N
